Weather History for Concord, NH

Change the Weather History Date:

Friday, June 21, 2013

  Actual Average Record
Temperature  
Mean Temperature 67 °F 67 °F  
Max Temperature 84 °F 79 °F 98 °F (1872)
Min Temperature 49 °F 54 °F 36 °F (1918)
Degree Days  
Heating Degree Days 0 2  
Month to date heating degree days 72 73  
Since 1 June heating degree days 72 73  
Since 1 July heating degree days 6845 7223  
Cooling Degree Days 2 3  
Month to date cooling degree days 36 47  
Year to date cooling degree days 57 65  
Since 1 June cooling degree days 36 47  
Growing Degree Days 16 (Base 50)    
Moisture  
Dew Point 52 °F    
Average Humidity 61    
Maximum Humidity 93    
Minimum Humidity 28    
Precipitation  
Precipitation 0.00 in 0.11 in 3.92 in (1944)
Month to date precipitation 4.88 2.69  
Year to date precipitation 17.64 18.35  
Snow  
Snow 0.00 in 0.00 in 0.00 in (2002)
Month to date snowfall 0.0 0.0  
Since 1 June snowfall 0.0 0.0  
Since 1 July snowfall 83.4 61.4  
Snow Depth 0.00 in    
Sea Level Pressure  
Sea Level Pressure 30.22 in    
Wind  
Wind Speed 3 mph (NW)    
Max Wind Speed 12 mph    
Max Gust Speed 17 mph    
Visibility 10 miles    
Events      
T = Trace of Precipitation, MM = Missing Value Source: NWS Daily Summary

Daily Weather History Graph

Daily Weather History Graph

Search for Another Location

Airport:

Trip Planner

Search our weather history database for the weather conditions in past years. The results will help you decide how hot, cold, wet, or windy it might be!

Date:

Astronomy

Jun. 21, 2013 Rise Set
Actual Time 5:06 AM EDT 8:29 PM EDT
Civil Twilight 4:30 AM EDT 9:05 PM EDT
Nautical Twilight 3:44 AM EDT 9:51 PM EDT
Astronomical Twilight 2:46 AM EDT 10:49 PM EDT
Moon 6:34 PM EDT (6/21) 3:21 AM EDT (6/21)
Length of Visible Light 16h 34m
Length of Day
15h 23m
Waxing Gibbous, 95% of the Moon is Illuminated
Jun 21
Waxing Gibbous
Jun 23
Full
Jun 30
Last Quarter
Jul 8
New
Jul 15
First Quarter

Hourly Weather History & Observations

Time (EDT) Temp. Dew Point Humidity Pressure Visibility Wind Dir Wind Speed Gust Speed Precip Events Conditions
12:51 AM 54.0 °F 50.0 °F 86% 30.22 in 10.0 mi Calm Calm - N/A   Clear
1:51 AM 51.1 °F 48.9 °F 92% 30.22 in 10.0 mi Calm Calm - N/A   Clear
2:51 AM 51.1 °F 48.9 °F 92% 30.21 in 10.0 mi Calm Calm - N/A   Clear
3:51 AM 50.0 °F 48.9 °F 96% 30.22 in 10.0 mi ENE 3.5 mph - N/A   Clear
4:51 AM 50.0 °F 48.0 °F 93% 30.22 in 10.0 mi Calm Calm - N/A   Clear
5:51 AM 50.0 °F 48.9 °F 96% 30.23 in 10.0 mi NE 3.5 mph - N/A   Clear
6:51 AM 55.0 °F 52.0 °F 89% 30.24 in 10.0 mi Calm Calm - N/A   Clear
7:51 AM 61.0 °F 55.0 °F 81% 30.24 in 10.0 mi Calm Calm - N/A   Clear
8:51 AM 66.9 °F 55.9 °F 68% 30.24 in 10.0 mi Calm Calm - N/A   Clear
9:51 AM 69.1 °F 55.9 °F 63% 30.23 in 10.0 mi Calm Calm - N/A   Scattered Clouds
10:51 AM 75.9 °F 57.0 °F 52% 30.25 in 10.0 mi North 5.8 mph - N/A   Clear
11:51 AM 75.9 °F 53.1 °F 45% 30.25 in 10.0 mi Calm Calm - N/A   Clear
12:51 PM 80.1 °F 46.0 °F 30% 30.24 in 10.0 mi WNW 4.6 mph - N/A   Clear
1:51 PM 82.0 °F 46.9 °F 29% 30.22 in 10.0 mi North 5.8 mph - N/A   Clear
2:51 PM 81.0 °F 46.0 °F 29% 30.22 in 10.0 mi WNW 8.1 mph - N/A   Clear
3:51 PM 82.9 °F 48.0 °F 29% 30.21 in 10.0 mi NW 6.9 mph - N/A   Clear
4:51 PM 84.0 °F 48.9 °F 29% 30.20 in 10.0 mi WNW 8.1 mph - N/A   Clear
5:51 PM 82.0 °F 48.9 °F 31% 30.19 in 10.0 mi SW 6.9 mph - N/A   Clear
6:51 PM 81.0 °F 50.0 °F 34% 30.20 in 10.0 mi WSW 6.9 mph - N/A   Clear
7:51 PM 78.1 °F 52.0 °F 40% 30.20 in 10.0 mi Calm Calm - N/A   Clear
8:51 PM 68.0 °F 57.0 °F 68% 30.20 in 10.0 mi Calm Calm - N/A   Clear
9:51 PM 63.0 °F 57.0 °F 81% 30.22 in 10.0 mi Calm Calm - N/A   Clear
10:51 PM 61.0 °F 57.0 °F 87% 30.21 in 10.0 mi Calm Calm - N/A   Clear
11:51 PM 59.0 °F 57.0 °F 93% 30.22 in 10.0 mi Calm Calm - N/A   Clear